Location: Gerlach
(40.6516°N, 119.3568°W)
Time: 03:58:09
(UTC-07:00)

RS-15 - Visible Passes

Search period start: 20 April 2024 00:00
Search period end: 30 April 2024 00:00
Orbit: 1895 x 2150 km, 64.8° (Epoch: 19 April)

Date Brightness Start Highest point End Pass type
(mag) Time Alt. Az. Time Alt. Az. Time Alt. Az.
20 Apr 9.5 00:09:02 10° W 00:18:51 29° NNW 00:28:23 10° NNE visible
20 Apr 10.0 02:28:43 10° NW 02:36:35 20° N 02:44:14 10° NE visible
20 Apr 9.3 04:43:03 10° NNW 04:53:23 40° NE 05:03:23 10° ESE visible
20 Apr 8.0 21:16:11 10° SSW 21:28:16 84° ESE 21:39:50 10° NE visible
20 Apr 9.3 23:31:37 10° W 23:42:05 35° NW 23:52:13 10° NNE visible
21 Apr 10.0 01:51:34 10° NW 01:59:23 20° N 02:07:00 10° NE visible
21 Apr 9.5 04:06:55 10° NNW 04:16:45 33° NE 04:26:16 10° E visible
21 Apr 8.0 20:40:25 10° SSW 20:52:18 68° ESE 21:03:42 10° NE visible
21 Apr 9.1 22:54:25 10° WSW 23:05:27 42° NW 23:16:07 10° NNE visible
22 Apr 10.0 01:14:10 10° NW 01:22:11 20° N 01:30:00 10° NE visible
22 Apr 9.7 03:30:41 10° NNW 03:39:57 28° NNE 03:48:57 10° E visible
22 Apr 8.2 20:04:58 10° S 20:16:27 53° ESE 20:27:28 10° NE visible
22 Apr 8.8 22:17:28 10° WSW 22:28:59 51° NW 22:40:03 10° NNE visible
23 Apr 9.9 00:36:35 10° WNW 00:45:02 22° NNW 00:53:17 10° NNE visible
23 Apr 9.8 02:54:19 10° NNW 03:03:01 24° NNE 03:11:29 10° ENE visible
23 Apr 8.5 05:07:15 10° NNW 05:18:18 62° NE 05:29:03 10° SE visible
23 Apr 8.5 21:40:47 10° SW 21:52:39 63° NW 22:04:01 10° NNE visible
23 Apr 9.8 23:58:55 10° WNW 00:07:59 25° NNW 00:16:47 10° NNE visible
24 Apr 9.9 02:17:46 10° NNW 02:25:58 22° NNE 02:33:57 10° ENE visible
24 Apr 8.9 04:31:12 10° NNW 04:41:59 50° NE 04:52:27 10° ESE visible
24 Apr 8.3 21:04:22 10° SW 21:16:26 77° NW 21:27:59 10° NNE visible
24 Apr 9.6 23:21:20 10° W 23:31:03 29° NNW 23:40:28 10° NNE visible
25 Apr 10.0 01:40:57 10° NW 01:48:49 20° N 01:56:30 10° NE visible
25 Apr 9.2 03:55:07 10° NNW 04:05:31 41° NE 04:15:36 10° ESE visible
25 Apr 8.1 20:28:15 10° SSW 20:40:21 87° ESE 20:51:55 10° NNE visible
25 Apr 9.5 22:43:53 10° W 22:54:15 34° NW 23:04:17 10° NNE visible
26 Apr 10.0 01:03:50 10° NW 01:11:38 20° N 01:19:12 10° NE visible
26 Apr 9.4 03:19:00 10° NNW 03:28:54 34° NE 03:38:30 10° E visible
26 Apr 8.0 05:31:29 10° NW 05:42:35 83° WSW 05:53:28 10° SSE visible
26 Apr 9.2 22:06:39 10° WSW 22:17:36 41° NW 22:28:10 10° NNE visible
27 Apr 10.0 00:26:27 10° NW 00:34:25 20° N 00:42:11 10° NE visible
27 Apr 9.6 02:42:47 10° NNW 02:52:08 29° NNE 03:01:12 10° E visible
27 Apr 8.1 04:55:23 10° NNW 05:06:33 80° ENE 05:17:28 10° SE visible
27 Apr 9.0 21:29:39 10° WSW 21:41:06 49° NW 21:52:07 10° NNE visible
27 Apr 10.0 23:48:53 10° WNW 23:57:15 22° NNW 00:05:25 10° NNE visible
28 Apr 9.8 02:06:27 10° NNW 02:15:13 25° NNE 02:23:44 10° ENE visible
28 Apr 8.4 04:19:19 10° NNW 04:30:23 64° NE 04:41:10 10° SE visible
28 Apr 8.7 20:52:56 10° SW 21:04:45 61° NW 21:16:05 10° NNE visible
28 Apr 9.9 23:11:14 10° WNW 23:20:11 24° NNW 23:28:53 10° NNE visible
29 Apr 9.9 01:29:55 10° NNW 01:38:11 22° NNE 01:46:14 10° ENE visible
29 Apr 8.7 03:43:16 10° NNW 03:54:06 52° NE 04:04:36 10° ESE visible
29 Apr 8.4 20:16:29 10° SW 20:28:31 75° NW 20:40:03 10° NNE visible
29 Apr 9.8 22:33:37 10° W 22:43:14 28° NNW 22:52:33 10° NNE visible
